[[[{"header":{"parameterUnit":"kt","parameterCategory":2,"dx":1,"dy":1,"la1":30.253999710083008,"la2":30.299108505249023,"lo1":-89.0895004272461,"lo2":-89.04439544677734,"nx":28,"ny":28,"refTime":"2022-10-17T21:00:00:Z","depth":0,"parameterNumber":1,"parameterNumberName":"U-component_of_WINDS"},"data":[-3.0697,-3.0867,-3.0878,-3.1077,-3.112,-3.1258,-3.131,-3.1379,-3.1436,-3.1601,-3.1697,-3.1725,-3.1787,-3.1904,-3.2008,-3.2018,-3.2062,-3.2113,-3.2116,-3.1878,-3.1846,-3.1815,-3.1776,-3.2122,-3.2122,-3.2362,-3.2364,-3.2366,-3.0516,-3.0561,-3.067,-3.0783,-3.0876,-3.0833,-3.0919,-3.0999,-3.1124,-3.1196,-3.1292,-3.1438,-3.1554,-3.16,-3.1713,-3.1792,-3.1779,-3.1822,-3.1817,-3.1828,-3.1573,-3.1531,-3.1831,-3.1831,-3.1831,-3.183,-3.183,-3.183,-3.0191,-3.0293,-3.0368,-3.0487,-3.0547,-3.0622,-3.0721,-3.0754,-3.086,-3.0982,-3.0974,-3.1115,-3.119,-3.1333,-3.1384,-3.1493,-3.1448,-3.1499,-3.1512,-3.1526,-3.1538,-3.119,-3.1513,-3.1512,-3.1512,-3.1511,-3.151,0,-2.9957,-2.9959,-3.0065,-3.0174,-3.0261,-3.0347,-3.0428,-3.0489,-3.0499,-3.0587,-3.0715,-3.0791,-3.0939,-3.1061,-3.1171,-3.1214,-3.118,-3.1177,-3.1213,-3.122,-3.121,-3.1217,-3.0802,-3.1169,-3.1166,-3.1164,-3.1162,-3.1161,-2.963,-2.9748,-2.9833,-2.9906,-2.9953,-3.0071,-3.0143,-3.0143,-3.022,-3.0319,-3.0409,-3.0531,-3.0629,-3.0832,-3.087,-3.0982,-3.0967,-3.1106,-3.0984,-3.0984,-3.097,-3.0964,-3.0975,-3.113,-3.1134,-3.1138,-3.114,0,-2.9445,-2.9464,-2.9651,-2.9724,-2.9746,-2.9869,-2.9931,-3.0033,-3.0055,-3.0198,-3.0232,-3.0266,-3.0392,-3.0408,-3.0556,-3.056,-3.0763,-3.0744,-3.0736,-3.0734,-3.086,-3.0848,-3.1267,-3.1321,-3.0962,-3.0965,-3.0968,0,-2.9175,-2.933,-2.9349,-2.9457,-2.9629,-2.9625,-2.9795,-2.9831,-2.9897,-3.001,-2.9973,-3.008,-3.0084,-3.0193,-3.0201,-3.0368,-3.0396,-3.041,-3.0411,-3.0415,-3.0413,-3.0458,-3.0442,-3.0406,-3.0404,-3.0402,-3.0401,0,-2.8885,-2.9078,-2.9252,-2.9299,-2.9394,-2.9476,-2.9519,-2.9593,-2.9665,-2.976,-2.9806,-2.9918,-2.998,-3.0066,-3.0074,-2.9991,-3.028,-3.0168,-3.0295,-3.0295,-3.0361,-3.0357,-3.0721,-3.0398,-3.0397,-3.0397,-3.0396,0,-2.867,-2.8767,-2.9018,-2.9095,-2.9146,-2.9262,-2.9371,-2.9474,-2.9555,-2.9567,-2.9642,-2.9621,-2.9769,-2.9656,-2.986,-2.9749,-2.9812,-2.9839,-2.9848,-2.9865,-2.9738,-2.9943,-3.0287,-3.0324,-2.9876,-2.9871,-2.9867,0,-2.8333,-2.8591,-2.8591,-2.883,-2.8951,-2.8902,-2.903,-2.9103,-2.913,-2.9237,-2.9266,-2.9389,-2.9309,-2.935,-2.9448,-2.9484,-2.9628,-2.9465,-2.962,-2.9626,-2.9601,-2.9917,-2.9965,-3.0209,-2.9812,-2.9818,-2.9822,0,-2.8075,-2.819,-2.8233,-2.8286,-2.8384,-2.8486,-2.8633,-2.8754,-2.8825,-2.8912,-2.9036,-2.9208,-2.9154,-2.9223,-2.9218,-2.9321,-2.9531,-2.925,-2.9252,-2.9301,-2.9786,-2.983,-2.9871,-2.9505,-2.9511,-2.9517,-2.9778,0,-2.7748,-2.788,-2.7996,-2.8118,-2.8199,-2.835,-2.8369,-2.8452,-2.8438,-2.8464,-2.8646,-2.8713,-2.8838,-2.8889,-2.8878,-2.9107,-2.9072,-2.9014,-2.8908,-2.9114,-2.9201,-2.9236,-2.8776,-2.8773,-2.8771,-2.8769,0,0,-2.7421,-2.7612,-2.7608,-2.7752,-2.782,-2.7769,-2.7928,-2.799,-2.8116,-2.8164,-2.8104,-2.8359,-2.8417,-2.8637,-2.8702,-2.8753,-2.8796,-2.8724,-2.9016,-2.9043,-2.9068,-2.9161,-2.9197,-2.8764,-2.8763,-2.8762,-2.8761,0,-2.7306,-2.7365,-2.7523,-2.7586,-2.7679,-2.7699,-2.7737,-2.7821,-2.7846,-2.8024,-2.7981,-2.8093,-2.8298,-2.8365,-2.8426,-2.8697,-2.8659,-2.8733,-2.8873,-2.8989,-2.902,-2.9047,-2.9144,-2.9179,-2.8755,-2.8756,-2.8756,0,-2.7056,-2.7118,-2.7196,-2.7351,-2.7412,-2.754,-2.7431,-2.7571,-2.7666,-2.7605,-2.7784,-2.7825,-2.7916,-2.8122,-2.8215,-2.8163,-2.8534,-2.8421,-2.8438,-2.8449,-2.8563,-2.86,-2.8633,-2.8199,-2.8197,-2.8195,0,0,-2.6955,-2.7078,-2.7146,-2.7328,-2.7369,-2.7402,-2.7472,-2.7467,-2.755,-2.7584,-2.7636,-2.7718,-2.7837,-2.7916,-2.8029,-2.8251,-2.8271,-2.8351,-2.8378,-2.8399,-2.8422,-2.8542,-2.8579,-2.8188,-2.8187,-2.8187,0,0,-2.6907,-2.6992,-2.6964,-2.7178,-2.7258,-2.7338,-2.7448,-2.7417,-2.7521,-2.7506,-2.7505,-2.7527,-2.772,-2.7762,-2.7657,-2.7991,-2.7885,-2.7911,-2.7957,-2.7991,-2.8017,-2.8004,-2.7558,0,0,0,0,0,-2.68,-2.6981,-2.6955,-2.6994,-2.7191,-2.7351,-2.7377,-2.738,-2.7304,-2.7391,-2.7429,-2.7385,-2.7705,-2.7612,-2.7651,-2.7769,-2.8089,-2.8107,-2.8123,-2.8235,-2.827,-2.8299,0,0,0,0,0,0,-2.6816,-2.6863,-2.695,-2.7037,-2.7081,-2.7345,-2.7217,-2.7223,-2.7295,-2.7283,-2.7379,-2.7388,-2.7394,-2.7592,-2.7627,-2.774,-2.7546,-2.8096,-2.8111,-2.8124,-2.8247,-2.8276,-2.83,0,0,0,0,0,-2.6828,-2.6866,-2.7181,-2.7035,-2.7073,-2.712,-2.721,-2.7214,-2.727,-2.7331,-2.7338,-2.7266,-2.7397,-2.7427,-2.7613,-2.7724,-2.7522,-2.7535,-2.8106,-2.8117,-2.8128,-2.8261,0,0,0,0,0,0,-2.6837,-2.6871,-2.7189,-2.7201,-2.6967,-2.7105,-2.7127,-2.7207,-2.7312,-2.7322,-2.7217,-2.7207,-2.7402,-2.7424,-2.7447,-2.7718,-2.7502,-2.7516,-2.7524,-2.8114,-2.8124,-2.8132,0,0,0,0,0,0,-2.685,-2.6881,-2.7195,-2.711,-2.7112,-2.7092,-2.7111,-2.727,-2.7314,-2.7193,-2.7188,-2.7211,-2.7367,-2.7423,-2.7441,-2.7689,-2.7487,-2.75,-2.7509,-2.7514,-2.8122,-2.8129,0,0,0,0,0,0,-2.6863,-2.689,-2.7106,-2.7108,-2.7109,-2.7243,-2.7232,-2.7435,-2.724,-2.7189,-2.7223,-2.7215,-2.7368,-2.7385,-2.7436,-2.7677,-2.7686,-2.7488,-2.7496,-2.7502,-2.7506,0,0,0,0,0,0,0,-2.6874,-2.6695,-2.7119,-2.7107,-2.7108,-2.731,-2.7313,-2.7317,-2.7238,-2.7232,-2.7225,-2.7218,-2.7415,-2.7428,-2.7443,-2.7668,0,0,-2.7486,-2.7492,0,0,0,0,0,0,0,0,-2.6684,-2.6692,-2.7119,-2.7121,-2.7124,-2.7311,-2.7313,-2.7316,-2.7237,-2.7232,-2.7226,-2.7221,-2.7418,-2.7429,-2.7441,0,0,0,0,0,0,0,0,0,0,0,0,0,0,0,-2.7119,-2.7121,0,-2.7311,-2.7313,-2.7315,-2.7236,-2.7232,-2.7227,-2.7223,-2.7421,-2.7431,-2.744,0,0,0,0,0,0,0,0,0,0,0,0,0,0,0,0,0,0,0,0,0,0,0,0,0,0,0,0,0,0,0,0,0,0,0,0,0,0,0,0,0,0,0,0,0,0,0,0,0,0,0,0,0,0,0,0,0,0,0,0,0,0,0,0,0,0,0,0,0]}],[{"header":{"parameterUnit":"kt","parameterCategory":2,"dx":1,"dy":1,"la1":30.253999710083008,"la2":30.299108505249023,"lo1":-89.0895004272461,"lo2":-89.04439544677734,"nx":28,"ny":28,"refTime":"2022-10-17T21:00:00:Z","depth":0,"parameterNumber":2,"parameterNumberName":"V-component_of_WINDS"},"data":[-16.4125,-16.446,-16.4463,-16.4844,-16.491,-16.5169,-16.5262,-16.5381,-16.5475,-16.578,-16.5955,-16.5987,-16.6077,-16.6282,-16.6468,-16.6477,-16.6555,-16.6672,-16.6662,-16.614,-16.6068,-16.5998,-16.592,-16.669,-16.6691,-16.7201,-16.7206,-16.721,-16.3738,-16.3808,-16.4012,-16.421,-16.4383,-16.4271,-16.4417,-16.4568,-16.4802,-16.492,-16.5093,-16.5361,-16.557,-16.5621,-16.5821,-16.5972,-16.5928,-16.6025,-16.6013,-16.6028,-16.5471,-16.5388,-16.6058,-16.6057,-16.6057,-16.6057,-16.6057,-16.6057,-16.3035,-16.3237,-16.3358,-16.3579,-16.3678,-16.381,-16.4,-16.4037,-16.4233,-16.4447,-16.4407,-16.467,-16.4785,-16.5025,-16.5104,-16.5305,-16.5196,-16.5301,-16.5327,-16.5354,-16.5384,-16.4643,-16.5339,-16.5337,-16.5335,-16.5334,-16.5332,0,-16.252,-16.2508,-16.2704,-16.2901,-16.3061,-16.3213,-16.335,-16.3468,-16.3438,-16.3601,-16.3836,-16.397,-16.4234,-16.4451,-16.4638,-16.4698,-16.4593,-16.4583,-16.4655,-16.4677,-16.4673,-16.4677,-16.3766,-16.4562,-16.4555,-16.4551,-16.4547,-16.4544,-16.1808,-16.2045,-16.2172,-16.2309,-16.2385,-16.2607,-16.2738,-16.2694,-16.2834,-16.2995,-16.3173,-16.3392,-16.3564,-16.3937,-16.3971,-16.4166,-16.4117,-16.442,-16.4145,-16.4157,-16.4118,-16.4104,-16.4126,-16.4474,-16.4483,-16.449,-16.4496,0,-16.1406,-16.1408,-16.1774,-16.1875,-16.1908,-16.2156,-16.224,-16.2438,-16.2451,-16.2724,-16.2784,-16.2804,-16.3033,-16.3019,-16.3277,-16.3261,-16.3662,-16.3609,-16.3621,-16.3609,-16.3877,-16.3852,-16.4757,-16.4872,-16.4075,-16.4083,-16.4089,0,-16.0799,-16.111,-16.1093,-16.1306,-16.1648,-16.1596,-16.1936,-16.198,-16.2081,-16.2295,-16.2176,-16.2379,-16.2329,-16.2529,-16.2507,-16.2832,-16.2881,-16.2887,-16.2877,-16.2898,-16.2897,-16.2968,-16.293,-16.2849,-16.2844,-16.284,-16.2836,0,-16.0169,-16.0525,-16.087,-16.0951,-16.109,-16.1252,-16.1317,-16.1428,-16.1557,-16.1721,-16.1803,-16.1997,-16.2103,-16.2253,-16.2223,-16.2037,-16.2621,-16.2358,-16.2626,-16.2628,-16.2756,-16.2748,-16.3555,-16.283,-16.2829,-16.2828,-16.2826,0,-15.9677,-15.9849,-16.035,-16.0461,-16.0556,-16.0783,-16.0972,-16.1163,-16.1289,-16.1291,-16.1419,-16.1337,-16.1622,-16.1362,-16.1752,-16.1517,-16.1627,-16.1659,-16.1678,-16.1701,-16.141,-16.1865,-16.2637,-16.2716,-16.1724,-16.1714,-16.1706,0,-15.8954,-15.9461,-15.942,-15.9896,-16.0128,-15.9978,-16.0228,-16.0344,-16.0368,-16.0564,-16.0586,-16.0811,-16.0614,-16.0682,-16.0877,-16.0909,-16.1214,-16.0868,-16.1144,-16.1155,-16.1114,-16.1825,-16.1943,-16.247,-16.1589,-16.1601,-16.161,0,-15.8393,-15.8562,-15.8651,-15.874,-15.8888,-15.9081,-15.937,-15.9581,-15.9714,-15.9859,-16.0096,-16.0411,-16.0275,-16.0389,-16.0342,-16.0546,-16.1006,-16.0371,-16.0373,-16.0484,-16.1529,-16.1639,-16.1728,-16.0928,-16.0942,-16.0954,-16.1517,0,-15.7646,-15.79,-15.8139,-15.8342,-15.849,-15.8788,-15.8776,-15.8931,-15.8871,-15.8889,-15.9239,-15.933,-15.9544,-15.9641,-15.9585,-16.0059,-15.9976,-15.9828,-15.9573,-16.004,-16.0224,-16.03,-15.9298,-15.9291,-15.9284,-15.9279,0,0,-15.6953,-15.7316,-15.7263,-15.7543,-15.7663,-15.7504,-15.7823,-15.7921,-15.8124,-15.821,-15.8067,-15.8526,-15.8607,-15.9032,-15.9177,-15.9264,-15.9346,-15.9184,-15.9818,-15.9878,-15.9934,-16.0132,-16.0211,-15.9268,-15.9265,-15.9263,-15.9261,0,-15.6677,-15.6769,-15.7088,-15.7188,-15.7334,-15.7337,-15.7414,-15.753,-15.7555,-15.79,-15.776,-15.7968,-15.8338,-15.844,-15.854,-15.9133,-15.9014,-15.9199,-15.9522,-15.9754,-15.9823,-15.9884,-16.0092,-16.0168,-15.9245,-15.9246,-15.9247,0,-15.6121,-15.6208,-15.6361,-15.6631,-15.6725,-15.6967,-15.6697,-15.6965,-15.7143,-15.6951,-15.7295,-15.7344,-15.748,-15.7886,-15.8068,-15.7943,-15.8713,-15.8468,-15.8508,-15.8527,-15.8751,-15.8834,-15.8907,-15.7937,-15.7932,-15.7928,0,0,-15.5884,-15.612,-15.6199,-15.6571,-15.664,-15.665,-15.6777,-15.6732,-15.686,-15.6912,-15.6972,-15.7099,-15.7312,-15.7454,-15.7653,-15.8101,-15.8123,-15.8308,-15.8369,-15.842,-15.8467,-15.8704,-15.8786,-15.7911,-15.7911,-15.791,0,0,-15.5769,-15.5876,-15.5794,-15.6225,-15.6354,-15.6453,-15.668,-15.6581,-15.676,-15.6723,-15.6656,-15.6687,-15.7066,-15.7119,-15.6894,-15.756,-15.7308,-15.7362,-15.7512,-15.759,-15.7651,-15.7629,-15.6627,0,0,0,0,0,-15.5481,-15.5862,-15.5787,-15.5858,-15.6198,-15.6495,-15.6538,-15.6493,-15.6314,-15.6494,-15.6529,-15.6394,-15.6983,-15.6782,-15.6851,-15.7103,-15.7692,-15.7731,-15.7768,-15.8067,-15.8148,-15.8217,0,0,0,0,0,0,-15.5509,-15.5595,-15.5777,-15.5894,-15.5969,-15.6481,-15.6169,-15.6167,-15.6294,-15.6263,-15.6392,-15.6398,-15.6363,-15.6743,-15.6806,-15.7046,-15.6605,-15.7708,-15.7741,-15.777,-15.8095,-15.8162,-15.8219,0,0,0,0,0,-15.553,-15.5599,-15.6157,-15.5888,-15.5954,-15.5985,-15.6154,-15.615,-15.6247,-15.6301,-15.6303,-15.6202,-15.6371,-15.6421,-15.678,-15.7019,-15.6562,-15.6585,-15.7729,-15.7755,-15.7778,-15.8128,0,0,0,0,0,0,-15.5546,-15.5597,-15.6169,-15.6187,-15.5741,-15.5955,-15.5987,-15.6136,-15.6275,-15.6282,-15.6106,-15.608,-15.6382,-15.6418,-15.6457,-15.7012,-15.6525,-15.655,-15.6565,-15.7749,-15.7769,-15.7787,0,0,0,0,0,0,-15.5559,-15.5614,-15.6179,-15.5996,-15.5993,-15.5928,-15.5957,-15.6255,-15.6279,-15.6071,-15.6054,-15.6093,-15.6321,-15.6419,-15.6448,-15.6916,-15.6498,-15.6521,-15.6537,-15.6547,-15.7765,-15.7781,0,0,0,0,0,0,-15.5581,-15.5628,-15.5991,-15.5989,-15.5985,-15.6185,-15.619,-15.654,-15.6126,-15.6067,-15.6087,-15.6069,-15.6326,-15.6354,-15.6443,-15.6899,-15.6911,-15.6499,-15.6515,-15.6526,-15.6533,0,0,0,0,0,0,0,-15.5599,-15.5297,-15.6062,-15.5983,-15.5978,-15.6356,-15.6361,-15.6366,-15.6122,-15.6107,-15.6091,-15.6077,-15.6366,-15.6391,-15.6417,-15.6885,0,0,-15.6496,-15.6508,0,0,0,0,0,0,0,0,-15.5276,-15.5292,-15.6063,-15.6066,-15.607,-15.6357,-15.6361,-15.6365,-15.6119,-15.6107,-15.6095,-15.6083,-15.6373,-15.6393,-15.6414,0,0,0,0,0,0,0,0,0,0,0,0,0,0,0,-15.6063,-15.6066,0,-15.6357,-15.6361,-15.6364,-15.6118,-15.6107,-15.6097,-15.6087,-15.6379,-15.6396,-15.6413,0,0,0,0,0,0,0,0,0,0,0,0,0,0,0,0,0,0,0,0,0,0,0,0,0,0,0,0,0,0,0,0,0,0,0,0,0,0,0,0,0,0,0,0,0,0,0,0,0,0,0,0,0,0,0,0,0,0,0,0,0,0,0,0,0,0,0,0,0]}]]]